Time,TemperatureF,DewpointF,PressureIn,WindDirection,WindDirectionDegrees,WindSpeedMPH,WindSpeedGustMPH,Humidity,HourlyPrecipIn,Conditions,Clouds,dailyrainin,SoftwareType,DateUTC
2013-02-19 00:00:00,31.4,22.4,30.23,SE,137,13.0,15.0,69,0.00,,---,0.00,VWS V14.01,2013-02-19 05:00:00,
2013-02-19 00:03:00,31.4,22.4,30.23,SE,137,12.0,14.0,69,0.00,,---,0.00,VWS V14.01,2013-02-19 05:03:00,
2013-02-19 00:08:00,31.3,22.3,30.23,SE,140,9.0,16.0,69,0.00,,---,0.00,VWS V14.01,2013-02-19 05:08:00,
2013-02-19 00:13:00,31.4,22.4,30.23,SSE,151,11.0,13.0,69,0.00,,---,0.00,VWS V14.01,2013-02-19 05:13:00,
2013-02-19 00:18:00,31.4,22.4,30.23,SSE,150,13.0,18.0,69,0.00,,---,0.00,VWS V14.01,2013-02-19 05:18:00,
2013-02-19 00:23:00,31.4,22.4,30.22,SE,135,11.0,13.0,69,0.00,,---,0.00,VWS V14.01,2013-02-19 05:23:00,
2013-02-19 00:28:00,31.2,22.2,30.22,SE,131,15.0,17.0,69,0.00,,---,0.00,VWS V14.01,2013-02-19 05:28:00,
2013-02-19 00:33:00,31.1,22.5,30.21,SSE,162,10.0,21.0,70,0.00,,---,0.00,VWS V14.01,2013-02-19 05:33:00,
2013-02-19 00:38:00,31.0,22.4,30.21,ESE,121,13.0,14.0,70,0.00,,---,0.00,VWS V14.01,2013-02-19 05:38:00,
2013-02-19 00:43:00,31.0,22.4,30.21,SSE,165,11.0,12.0,70,0.00,,---,0.00,VWS V14.01,2013-02-19 05:43:00,
2013-02-19 00:48:00,30.9,22.3,30.21,SSE,158,10.0,12.0,70,0.00,,---,0.00,VWS V14.01,2013-02-19 05:48:00,
2013-02-19 00:53:00,30.8,21.9,30.21,South,187,9.0,11.0,69,0.00,,---,0.00,VWS V14.01,2013-02-19 05:53:00,
2013-02-19 00:58:00,30.8,21.9,30.20,SSE,164,10.0,12.0,69,0.00,,---,0.00,VWS V14.01,2013-02-19 05:58:00,
2013-02-19 01:03:00,30.8,21.9,30.20,SE,129,11.0,16.0,69,0.00,,---,0.00,VWS V14.01,2013-02-19 06:03:00,
2013-02-19 01:08:00,30.9,21.9,30.20,SE,126,15.0,18.0,69,0.00,,---,0.00,VWS V14.01,2013-02-19 06:08:00,
2013-02-19 01:13:00,30.9,21.9,30.20,SSE,168,13.0,17.0,69,0.00,,---,0.00,VWS V14.01,2013-02-19 06:13:00,
2013-02-19 01:18:00,31.2,21.5,30.19,South,171,14.0,16.0,67,0.00,,---,0.00,VWS V14.01,2013-02-19 06:18:00,
2013-02-19 01:23:00,31.3,21.6,30.18,SSE,152,15.0,15.0,67,0.00,,---,0.00,VWS V14.01,2013-02-19 06:23:00,
2013-02-19 01:28:00,31.1,21.4,30.18,SSE,164,10.0,13.0,67,0.00,,---,0.00,VWS V14.01,2013-02-19 06:28:00,
2013-02-19 01:33:00,31.1,21.4,30.17,SSE,153,12.0,13.0,67,0.00,,---,0.00,VWS V14.01,2013-02-19 06:33:00,
2013-02-19 01:38:00,31.1,21.4,30.16,SSE,158,13.0,14.0,67,0.00,,---,0.00,VWS V14.01,2013-02-19 06:38:00,
2013-02-19 01:43:00,30.9,21.2,30.15,South,183,16.0,16.0,67,0.00,,---,0.00,VWS V14.01,2013-02-19 06:43:00,
2013-02-19 01:48:00,30.8,21.1,30.16,SSE,151,11.0,12.0,67,0.00,,---,0.00,VWS V14.01,2013-02-19 06:48:00,
2013-02-19 01:53:00,30.9,21.2,30.15,SSE,151,12.0,13.0,67,0.00,,---,0.00,VWS V14.01,2013-02-19 06:53:00,
2013-02-19 01:58:00,31.0,21.0,30.14,SSE,162,11.0,12.0,66,0.00,,---,0.00,VWS V14.01,2013-02-19 06:58:00,
2013-02-19 02:03:00,31.0,21.0,30.17,SSE,156,12.0,16.0,66,0.00,,---,0.00,VWS V14.01,2013-02-19 07:03:00,
2013-02-19 02:08:00,31.1,21.1,30.16,South,174,14.0,14.0,66,0.00,,---,0.00,VWS V14.01,2013-02-19 07:08:00,
2013-02-19 02:13:00,31.0,21.3,30.15,SE,129,10.0,17.0,67,0.00,,---,0.00,VWS V14.01,2013-02-19 07:13:00,
2013-02-19 02:18:00,30.9,20.9,30.14,SSE,160,10.0,14.0,66,0.00,,---,0.00,VWS V14.01,2013-02-19 07:18:00,
2013-02-19 02:23:00,30.9,20.9,30.14,SSE,153,15.0,16.0,66,0.00,,---,0.00,VWS V14.01,2013-02-19 07:23:00,
2013-02-19 02:28:00,30.8,20.8,30.14,South,170,10.0,17.0,66,0.00,,---,0.00,VWS V14.01,2013-02-19 07:28:00,
2013-02-19 02:33:00,30.8,20.8,30.14,SSE,153,12.0,15.0,66,0.00,,---,0.00,VWS V14.01,2013-02-19 07:33:00,
2013-02-19 02:38:00,30.7,20.7,30.14,SSE,154,11.0,15.0,66,0.00,,---,0.00,VWS V14.01,2013-02-19 07:38:00,
2013-02-19 02:43:00,30.6,21.0,30.14,SE,138,13.0,14.0,67,0.00,,---,0.00,VWS V14.01,2013-02-19 07:43:00,
2013-02-19 02:48:00,30.6,21.0,30.13,East,97,14.0,15.0,67,0.00,,---,0.00,VWS V14.01,2013-02-19 07:48:00,
2013-02-19 02:53:00,30.6,21.3,30.13,SSE,154,9.0,18.0,68,0.00,,---,0.00,VWS V14.01,2013-02-19 07:53:00,
2013-02-19 02:58:00,30.6,21.3,30.14,ESE,121,10.0,13.0,68,0.00,,---,0.00,VWS V14.01,2013-02-19 07:58:00,
2013-02-19 03:03:00,30.6,21.3,30.14,SE,135,5.0,12.0,68,0.00,,---,0.00,VWS V14.01,2013-02-19 08:03:00,
2013-02-19 03:08:00,30.6,21.3,30.15,SSE,168,9.0,13.0,68,0.00,,---,0.00,VWS V14.01,2013-02-19 08:08:00,
2013-02-19 03:13:00,30.5,21.6,30.15,South,169,10.0,12.0,69,0.00,,---,0.00,VWS V14.01,2013-02-19 08:13:00,
2013-02-19 03:18:00,30.5,21.9,30.16,SE,140,11.0,17.0,70,0.00,,---,0.00,VWS V14.01,2013-02-19 08:18:00,
2013-02-19 03:23:00,30.5,22.2,30.16,South,170,11.0,15.0,71,0.00,,---,0.00,VWS V14.01,2013-02-19 08:23:00,
2013-02-19 03:28:00,30.5,22.6,30.15,ESE,114,10.0,14.0,72,0.00,,---,0.00,VWS V14.01,2013-02-19 08:28:00,
2013-02-19 03:33:00,30.3,22.7,30.15,SE,146,13.0,17.0,73,0.00,,---,0.00,VWS V14.01,2013-02-19 08:33:00,
2013-02-19 03:38:00,30.3,22.7,30.15,SE,143,12.0,13.0,73,0.00,,---,0.00,VWS V14.01,2013-02-19 08:38:00,
2013-02-19 03:43:00,30.2,23.6,30.14,ESE,122,11.0,12.0,76,0.00,,---,0.00,VWS V14.01,2013-02-19 08:43:00,
2013-02-19 03:48:00,29.9,23.6,30.13,SE,126,10.0,11.0,77,0.00,,---,0.00,VWS V14.01,2013-02-19 08:48:00,
2013-02-19 03:53:00,29.7,23.7,30.14,SSE,158,13.0,13.0,78,0.00,,---,0.00,VWS V14.01,2013-02-19 08:53:00,
2013-02-19 03:58:00,29.6,23.9,30.13,ESE,116,8.0,11.0,79,0.00,,---,0.00,VWS V14.01,2013-02-19 08:58:00,
2013-02-19 04:03:00,29.7,24.0,30.12,East,85,5.0,10.0,79,0.00,,---,0.00,VWS V14.01,2013-02-19 09:03:00,
2013-02-19 04:08:00,29.7,24.3,30.12,South,170,8.0,9.0,80,0.00,,---,0.00,VWS V14.01,2013-02-19 09:08:00,
2013-02-19 04:13:00,29.7,24.0,30.11,ESE,112,10.0,10.0,79,0.00,,---,0.00,VWS V14.01,2013-02-19 09:13:00,
2013-02-19 04:18:00,29.7,24.0,30.12,SSE,155,6.0,10.0,79,0.00,,---,0.00,VWS V14.01,2013-02-19 09:18:00,
2013-02-19 04:23:00,29.8,24.1,30.14,SSE,159,9.0,10.0,79,0.00,,---,0.00,VWS V14.01,2013-02-19 09:23:00,
2013-02-19 04:28:00,29.9,24.2,30.12,SSE,158,7.0,12.0,79,0.00,,---,0.00,VWS V14.01,2013-02-19 09:28:00,
2013-02-19 04:33:00,30.0,24.3,30.14,SSE,162,7.0,10.0,79,0.00,,---,0.00,VWS V14.01,2013-02-19 09:33:00,
2013-02-19 04:38:00,30.7,25.0,30.14,SSE,157,7.0,15.0,79,0.00,,---,0.00,VWS V14.01,2013-02-19 09:38:00,
2013-02-19 04:43:00,31.3,25.9,30.14,SSE,166,9.0,10.0,80,0.00,,---,0.00,VWS V14.01,2013-02-19 09:43:00,
2013-02-19 04:48:00,31.1,26.5,30.14,SSE,161,12.0,16.0,83,0.00,,---,0.00,VWS V14.01,2013-02-19 09:48:00,
2013-02-19 04:53:00,30.8,27.4,30.13,South,181,6.0,12.0,87,0.00,,---,0.00,VWS V14.01,2013-02-19 09:53:00,
2013-02-19 04:58:00,30.4,27.8,30.12,South,185,6.0,16.0,90,0.00,,---,0.00,VWS V14.01,2013-02-19 09:58:00,
2013-02-19 05:03:00,30.2,28.2,30.13,WSW,239,5.0,12.0,92,0.00,,---,0.00,VWS V14.01,2013-02-19 10:03:00,
2013-02-19 05:08:00,30.3,28.8,30.13,SSE,154,11.0,15.0,94,0.00,,---,0.00,VWS V14.01,2013-02-19 10:08:00,
2013-02-19 05:13:00,30.2,28.7,30.12,SSW,205,2.0,9.0,94,0.00,,---,0.00,VWS V14.01,2013-02-19 10:13:00,
2013-02-19 05:18:00,30.1,28.8,30.12,SSE,160,5.0,10.0,95,0.00,,---,0.00,VWS V14.01,2013-02-19 10:18:00,
2013-02-19 05:23:00,30.1,29.1,30.11,SSE,155,7.0,10.0,96,0.00,,---,0.00,VWS V14.01,2013-02-19 10:23:00,
2013-02-19 05:28:00,30.0,29.0,30.12,SW,235,5.0,7.0,96,0.00,,---,0.00,VWS V14.01,2013-02-19 10:28:00,
2013-02-19 05:33:00,29.8,28.8,30.12,WSW,240,2.0,3.0,96,0.00,,---,0.00,VWS V14.01,2013-02-19 10:33:00,
2013-02-19 05:38:00,29.8,28.8,30.12,West,264,3.0,5.0,96,0.00,,---,0.00,VWS V14.01,2013-02-19 10:38:00,
2013-02-19 05:43:00,29.9,29.1,30.12,WSW,254,2.0,5.0,97,0.00,,---,0.00,VWS V14.01,2013-02-19 10:43:00,
2013-02-19 05:48:00,30.1,29.4,30.10,SSW,203,3.0,9.0,97,0.00,,---,0.00,VWS V14.01,2013-02-19 10:48:00,
2013-02-19 05:53:00,30.1,29.4,30.09,SSW,211,4.0,5.0,97,0.00,,---,0.00,VWS V14.01,2013-02-19 10:53:00,
2013-02-19 05:58:00,30.1,29.4,30.10,WSW,239,2.0,6.0,97,0.00,,---,0.00,VWS V14.01,2013-02-19 10:58:00,
2013-02-19 06:03:00,30.3,29.5,30.11,WSW,242,1.0,4.0,97,0.00,,---,0.00,VWS V14.01,2013-02-19 11:03:00,
2013-02-19 06:08:00,30.4,29.6,30.12,West,273,3.0,3.0,97,0.00,,---,0.00,VWS V14.01,2013-02-19 11:08:00,
2013-02-19 06:13:00,30.5,29.8,30.11,SW,222,2.0,6.0,97,0.00,,---,0.00,VWS V14.01,2013-02-19 11:13:00,
2013-02-19 06:18:00,30.6,29.9,30.11,West,278,2.0,4.0,97,0.00,,---,0.00,VWS V14.01,2013-02-19 11:18:00,
2013-02-19 06:23:00,30.6,29.9,30.10,SW,224,0.0,2.0,97,0.00,,---,0.00,VWS V14.01,2013-02-19 11:23:00,
2013-02-19 06:28:00,30.8,30.0,30.10,West,265,0.0,2.0,97,0.00,,---,0.00,VWS V14.01,2013-02-19 11:28:00,
2013-02-19 06:33:00,30.8,30.3,30.10,NW,307,0.0,2.0,98,0.00,,---,0.00,VWS V14.01,2013-02-19 11:33:00,
2013-02-19 06:38:00,30.9,30.4,30.10,WSW,255,1.0,2.0,98,0.00,,---,0.00,VWS V14.01,2013-02-19 11:38:00,
2013-02-19 06:43:00,30.9,30.4,30.09,WSW,255,1.0,1.0,98,0.00,,---,0.00,VWS V14.01,2013-02-19 11:43:00,
2013-02-19 06:48:00,31.0,30.5,30.09,West,272,3.0,4.0,98,0.00,,---,0.00,VWS V14.01,2013-02-19 11:48:00,
2013-02-19 06:53:00,31.1,30.6,30.09,WSW,251,2.0,6.0,98,0.00,,---,0.00,VWS V14.01,2013-02-19 11:53:00,
2013-02-19 06:58:00,31.1,30.6,30.09,WNW,284,0.0,2.0,98,0.00,,---,0.00,VWS V14.01,2013-02-19 11:58:00,
2013-02-19 07:03:00,31.4,30.9,30.08,West,272,2.0,4.0,98,0.00,,---,0.00,VWS V14.01,2013-02-19 12:03:00,
2013-02-19 07:08:00,31.5,31.0,30.09,WSW,257,1.0,2.0,98,0.00,,---,0.00,VWS V14.01,2013-02-19 12:08:00,
2013-02-19 07:13:00,31.7,31.2,30.08,WNW,299,1.0,2.0,98,0.00,,---,0.00,VWS V14.01,2013-02-19 12:13:00,
2013-02-19 07:18:00,31.7,31.2,30.08,WSW,239,0.0,5.0,98,0.00,,---,0.00,VWS V14.01,2013-02-19 12:18:00,
2013-02-19 07:23:00,31.9,31.4,30.08,SW,232,7.0,7.0,98,0.00,,---,0.00,VWS V14.01,2013-02-19 12:23:00,
2013-02-19 07:28:00,32.2,31.7,30.07,West,269,1.0,3.0,98,0.00,,---,0.00,VWS V14.01,2013-02-19 12:28:00,
2013-02-19 07:33:00,32.4,31.9,30.07,West,268,1.0,2.0,98,0.00,,---,0.00,VWS V14.01,2013-02-19 12:33:00,
2013-02-19 07:38:00,32.5,32.0,30.07,WSW,237,5.0,6.0,98,0.00,,---,0.00,VWS V14.01,2013-02-19 12:38:00,
2013-02-19 07:43:00,32.5,32.0,30.06,WNW,290,1.0,1.0,98,0.00,,---,0.00,VWS V14.01,2013-02-19 12:43:00,
2013-02-19 07:48:00,32.6,32.1,30.06,WSW,248,2.0,3.0,98,0.00,,---,0.00,VWS V14.01,2013-02-19 12:48:00,
2013-02-19 07:53:00,32.6,32.1,30.06,WSW,255,0.0,1.0,98,0.00,,---,0.00,VWS V14.01,2013-02-19 12:53:00,
2013-02-19 07:58:00,32.6,32.3,30.06,SW,233,1.0,3.0,99,0.00,,---,0.00,VWS V14.01,2013-02-19 12:58:00,
2013-02-19 08:03:00,32.8,32.3,30.06,West,270,3.0,3.0,98,0.00,,---,0.00,VWS V14.01,2013-02-19 13:03:00,
2013-02-19 08:08:00,32.8,32.3,30.06,WSW,258,2.0,3.0,98,0.00,,---,0.00,VWS V14.01,2013-02-19 13:08:00,
2013-02-19 08:13:00,32.9,32.7,30.06,WSW,243,0.0,1.0,99,0.00,,---,0.00,VWS V14.01,2013-02-19 13:13:00,
2013-02-19 08:18:00,32.9,32.7,30.05,WSW,258,1.0,1.0,99,0.00,,---,0.00,VWS V14.01,2013-02-19 13:18:00,
2013-02-19 08:23:00,33.1,32.8,30.05,SSE,160,2.0,2.0,99,0.00,,---,0.00,VWS V14.01,2013-02-19 13:23:00,
2013-02-19 08:28:00,33.3,33.0,30.05,WSW,253,4.0,4.0,99,0.00,,---,0.00,VWS V14.01,2013-02-19 13:28:00,
2013-02-19 08:33:00,33.3,33.0,30.04,NW,318,2.0,7.0,99,0.00,,---,0.00,VWS V14.01,2013-02-19 13:33:00,
2013-02-19 08:38:00,33.5,33.2,30.04,West,260,0.0,3.0,99,0.00,,---,0.00,VWS V14.01,2013-02-19 13:38:00,
2013-02-19 08:43:00,33.6,33.3,30.04,SSW,201,4.0,5.0,99,0.00,,---,0.00,VWS V14.01,2013-02-19 13:43:00,
2013-02-19 08:48:00,33.7,33.5,30.05,West,272,2.0,3.0,99,0.00,,---,0.00,VWS V14.01,2013-02-19 13:48:00,
2013-02-19 08:53:00,33.7,33.5,30.04,West,269,0.0,2.0,99,0.00,,---,0.00,VWS V14.01,2013-02-19 13:53:00,
2013-02-19 08:58:00,33.8,33.5,30.04,West,260,2.0,2.0,99,0.00,,---,0.00,VWS V14.01,2013-02-19 13:58:00,
2013-02-19 09:03:00,33.9,33.7,30.04,West,265,2.0,3.0,99,0.00,,---,0.00,VWS V14.01,2013-02-19 14:03:00,
2013-02-19 09:08:00,34.0,33.8,30.04,West,280,5.0,5.0,99,0.00,,---,0.00,VWS V14.01,2013-02-19 14:08:00,
2013-02-19 09:13:00,34.1,33.8,30.04,SSW,198,1.0,3.0,99,0.00,,---,0.00,VWS V14.01,2013-02-19 14:13:00,
2013-02-19 09:18:00,34.2,34.0,30.04,NNW,346,2.0,3.0,99,0.00,,---,0.00,VWS V14.01,2013-02-19 14:18:00,
2013-02-19 09:23:00,34.1,33.8,30.04,WNW,303,0.0,2.0,99,0.00,,---,0.00,VWS V14.01,2013-02-19 14:23:00,
2013-02-19 09:28:00,34.2,34.0,30.03,West,270,4.0,4.0,99,0.00,,---,0.00,VWS V14.01,2013-02-19 14:28:00,
2013-02-19 09:33:00,34.8,34.5,30.03,West,280,3.0,4.0,99,0.00,,---,0.00,VWS V14.01,2013-02-19 14:33:00,
2013-02-19 09:38:00,35.1,34.8,30.03,WSW,247,4.0,13.0,99,0.00,,---,0.00,VWS V14.01,2013-02-19 14:38:00,
2013-02-19 09:43:00,35.0,34.8,30.02,WNW,282,0.0,3.0,99,0.00,,---,0.00,VWS V14.01,2013-02-19 14:43:00,
2013-02-19 09:48:00,35.3,35.0,30.03,NNE,30,1.0,1.0,99,0.00,,---,0.00,VWS V14.01,2013-02-19 14:48:00,
2013-02-19 09:53:00,35.3,35.0,30.03,WNW,286,0.0,1.0,99,0.00,,---,0.00,VWS V14.01,2013-02-19 14:53:00,
2013-02-19 09:58:00,35.6,35.3,30.03,WNW,285,1.0,2.0,99,0.00,,---,0.00,VWS V14.01,2013-02-19 14:58:00,
2013-02-19 10:03:00,36.2,36.0,30.03,WSW,240,1.0,2.0,99,0.00,,---,0.00,VWS V14.01,2013-02-19 15:03:00,
2013-02-19 10:08:00,36.9,36.7,30.03,West,263,1.0,1.0,99,0.00,,---,0.00,VWS V14.01,2013-02-19 15:08:00,
2013-02-19 10:13:00,36.7,36.5,30.02,NW,304,0.0,2.0,99,0.00,,---,0.00,VWS V14.01,2013-02-19 15:13:00,
2013-02-19 10:18:00,37.1,37.1,30.03,SW,232,4.0,4.0,100,0.00,,---,0.00,VWS V14.01,2013-02-19 15:18:00,
2013-02-19 10:23:00,37.0,37.0,30.03,West,279,0.0,1.0,100,0.00,,---,0.00,VWS V14.01,2013-02-19 15:23:00,
2013-02-19 10:28:00,36.9,36.9,30.03,North,352,0.0,6.0,100,0.00,,---,0.00,VWS V14.01,2013-02-19 15:28:00,
2013-02-19 10:33:00,36.8,36.5,30.02,NW,311,1.0,7.0,99,0.00,,---,0.00,VWS V14.01,2013-02-19 15:33:00,
2013-02-19 10:38:00,36.8,36.5,30.02,WNW,296,1.0,3.0,99,0.00,,---,0.00,VWS V14.01,2013-02-19 15:38:00,
2013-02-19 10:43:00,37.0,36.8,30.02,WSW,245,6.0,6.0,99,0.00,,---,0.00,VWS V14.01,2013-02-19 15:43:00,
2013-02-19 10:48:00,36.9,36.7,30.02,South,191,6.0,10.0,99,0.00,,---,0.00,VWS V14.01,2013-02-19 15:48:00,
2013-02-19 10:53:00,36.8,36.5,30.03,NNW,337,1.0,2.0,99,0.00,,---,0.00,VWS V14.01,2013-02-19 15:53:00,
2013-02-19 10:58:00,36.7,36.5,30.02,NNE,25,1.0,7.0,99,0.00,,---,0.00,VWS V14.01,2013-02-19 15:58:00,
2013-02-19 11:03:00,36.7,36.5,30.03,NE,44,2.0,2.0,99,0.00,,---,0.00,VWS V14.01,2013-02-19 16:03:00,
2013-02-19 11:07:00,36.7,36.5,30.03,WSW,253,3.0,6.0,99,0.01,,---,0.01,VWS V14.01,2013-02-19 16:07:00,
2013-02-19 11:13:00,36.7,36.5,30.02,West,270,1.0,7.0,99,0.01,,---,0.01,VWS V14.01,2013-02-19 16:13:00,
2013-02-19 11:17:00,36.5,36.2,30.02,West,260,2.0,3.0,99,0.01,,---,0.01,VWS V14.01,2013-02-19 16:17:00,
2013-02-19 11:22:00,36.4,36.2,30.02,WNW,291,2.0,2.0,99,0.01,,---,0.01,VWS V14.01,2013-02-19 16:22:00,
2013-02-19 11:27:00,36.4,36.2,30.03,SW,216,4.0,5.0,99,0.01,,---,0.01,VWS V14.01,2013-02-19 16:27:00,
2013-02-19 11:32:00,36.4,36.2,30.02,WSW,249,5.0,10.0,99,0.01,,---,0.01,VWS V14.01,2013-02-19 16:32:00,
2013-02-19 11:37:00,36.2,36.0,30.03,WNW,293,0.0,7.0,99,0.02,,---,0.02,VWS V14.01,2013-02-19 16:37:00,
2013-02-19 11:42:00,36.1,35.8,30.02,NE,35,1.0,2.0,99,0.02,,---,0.02,VWS V14.01,2013-02-19 16:42:00,
2013-02-19 11:47:00,36.1,35.8,30.02,NNW,327,1.0,5.0,99,0.02,,---,0.02,VWS V14.01,2013-02-19 16:47:00,
2013-02-19 11:52:00,36.1,35.8,30.02,West,262,4.0,4.0,99,0.02,,---,0.02,VWS V14.01,2013-02-19 16:52:00,
2013-02-19 11:57:00,36.1,35.8,30.01,West,274,6.0,9.0,99,0.02,,---,0.02,VWS V14.01,2013-02-19 16:57:00,
2013-02-19 12:02:00,36.1,35.8,30.01,WSW,247,6.0,7.0,99,0.02,,---,0.02,VWS V14.01,2013-02-19 17:02:00,
2013-02-19 12:07:00,36.2,36.0,30.01,NNW,332,1.0,6.0,99,0.02,,---,0.03,VWS V14.01,2013-02-19 17:07:00,
2013-02-19 12:13:00,36.5,36.2,30.01,NNW,340,1.0,6.0,99,0.02,,---,0.03,VWS V14.01,2013-02-19 17:13:00,
2013-02-19 12:18:00,36.9,36.4,30.01,SSW,207,4.0,11.0,98,0.02,,---,0.03,VWS V14.01,2013-02-19 17:18:00,
2013-02-19 12:23:00,36.8,36.0,30.01,NW,317,4.0,11.0,97,0.03,,---,0.04,VWS V14.01,2013-02-19 17:23:00,
2013-02-19 12:28:00,37.2,36.2,30.01,WSW,254,4.0,5.0,96,0.03,,---,0.04,VWS V14.01,2013-02-19 17:28:00,
2013-02-19 12:33:00,38.4,36.8,30.01,SW,230,1.0,9.0,94,0.04,,---,0.05,VWS V14.01,2013-02-19 17:33:00,
2013-02-19 12:38:00,37.9,35.8,30.01,SW,233,2.0,4.0,92,0.03,,---,0.05,VWS V14.01,2013-02-19 17:38:00,
2013-02-19 12:42:00,38.6,36.2,30.01,WSW,251,3.0,5.0,91,0.04,,---,0.06,VWS V14.01,2013-02-19 17:42:00,
2013-02-19 12:48:00,39.1,36.1,30.01,West,268,1.0,2.0,89,0.05,,---,0.07,VWS V14.01,2013-02-19 17:48:00,
2013-02-19 12:53:00,39.9,36.3,30.01,NW,308,2.0,2.0,87,0.06,,---,0.08,VWS V14.01,2013-02-19 17:53:00,
2013-02-19 12:58:00,39.7,35.9,30.00,WSW,239,2.0,3.0,86,0.08,,---,0.10,VWS V14.01,2013-02-19 17:58:00,
2013-02-19 13:03:00,40.1,35.4,30.00,SW,235,4.0,9.0,83,0.09,,---,0.11,VWS V14.01,2013-02-19 18:03:00,
2013-02-19 13:07:00,38.8,35.0,30.00,WSW,240,1.0,4.0,86,0.09,,---,0.12,VWS V14.01,2013-02-19 18:07:00,
2013-02-19 13:12:00,39.3,35.2,30.00,West,272,2.0,7.0,85,0.11,,---,0.14,VWS V14.01,2013-02-19 18:12:00,
2013-02-19 13:17:00,39.4,34.1,30.00,WSW,247,1.0,3.0,81,0.13,,---,0.16,VWS V14.01,2013-02-19 18:17:00,
2013-02-19 13:22:00,40.3,36.5,30.00,WSW,239,2.0,4.0,86,0.13,,---,0.17,VWS V14.01,2013-02-19 18:22:00,
2013-02-19 13:27:00,40.5,34.8,30.00,WNW,283,1.0,3.0,80,0.14,,---,0.18,VWS V14.01,2013-02-19 18:27:00,
2013-02-19 13:32:00,40.7,35.0,29.99,West,265,1.0,3.0,80,0.15,,---,0.20,VWS V14.01,2013-02-19 18:32:00,
2013-02-19 13:37:00,41.5,35.5,29.99,South,178,2.0,4.0,79,0.15,,---,0.20,VWS V14.01,2013-02-19 18:37:00,
2013-02-19 13:42:00,41.5,34.2,29.99,SW,228,4.0,6.0,75,0.15,,---,0.21,VWS V14.01,2013-02-19 18:42:00,
2013-02-19 13:47:00,42.1,36.1,29.99,NW,310,2.0,4.0,79,0.15,,---,0.22,VWS V14.01,2013-02-19 18:47:00,
2013-02-19 13:52:00,41.7,34.4,29.98,West,278,3.0,6.0,75,0.14,,---,0.22,VWS V14.01,2013-02-19 18:52:00,
2013-02-19 13:57:00,41.4,34.7,29.98,WSW,247,5.0,5.0,77,0.12,,---,0.22,VWS V14.01,2013-02-19 18:57:00,
2013-02-19 14:02:00,41.6,32.6,29.98,NW,316,4.0,8.0,70,0.11,,---,0.22,VWS V14.01,2013-02-19 19:02:00,
2013-02-19 14:07:00,40.9,31.9,29.98,West,268,2.0,3.0,70,0.11,,---,0.23,VWS V14.01,2013-02-19 19:07:00,
2013-02-19 14:12:00,41.2,32.9,29.98,NNW,341,1.0,4.0,72,0.09,,---,0.23,VWS V14.01,2013-02-19 19:12:00,
2013-02-19 14:17:00,42.0,33.3,29.97,SW,223,4.0,7.0,71,0.08,,---,0.23,VWS V14.01,2013-02-19 19:17:00,
2013-02-19 14:22:00,41.8,32.0,29.97,WNW,288,1.0,7.0,68,0.06,,---,0.23,VWS V14.01,2013-02-19 19:22:00,
2013-02-19 14:27:00,42.2,33.1,29.97,SW,227,1.0,5.0,70,0.05,,---,0.23,VWS V14.01,2013-02-19 19:27:00,
2013-02-19 14:32:00,42.1,33.0,29.97,NNW,333,3.0,9.0,70,0.04,,---,0.23,VWS V14.01,2013-02-19 19:32:00,
2013-02-19 14:37:00,42.7,31.4,29.96,North,11,2.0,9.0,64,0.03,,---,0.23,VWS V14.01,2013-02-19 19:37:00,
2013-02-19 14:42:00,42.3,30.6,29.96,SW,221,6.0,8.0,63,0.02,,---,0.23,VWS V14.01,2013-02-19 19:42:00,
2013-02-19 14:47:00,42.2,29.7,29.97,WSW,248,3.0,5.0,61,0.01,,---,0.23,VWS V14.01,2013-02-19 19:47:00,
2013-02-19 14:52:00,42.6,29.3,29.97,WSW,251,6.0,9.0,59,0.01,,---,0.23,VWS V14.01,2013-02-19 19:52:00,
2013-02-19 14:57:00,42.9,29.6,29.96,WSW,238,6.0,12.0,59,0.01,,---,0.23,VWS V14.01,2013-02-19 19:57:00,
2013-02-19 15:02:00,42.4,28.7,29.96,WSW,254,8.0,8.0,58,0.01,,---,0.23,VWS V14.01,2013-02-19 20:02:00,
2013-02-19 15:07:00,42.2,27.6,29.96,SW,229,3.0,12.0,56,0.00,,---,0.23,VWS V14.01,2013-02-19 20:07:00,
2013-02-19 15:12:00,42.2,27.2,29.95,NNW,334,5.0,12.0,55,0.00,,---,0.23,VWS V14.01,2013-02-19 20:12:00,
2013-02-19 15:17:00,42.6,28.9,29.95,SW,234,4.0,5.0,58,0.00,,---,0.23,VWS V14.01,2013-02-19 20:17:00,
2013-02-19 15:22:00,42.4,26.5,29.94,NNE,21,7.0,10.0,53,0.00,,---,0.23,VWS V14.01,2013-02-19 20:22:00,
2013-02-19 15:27:00,42.1,27.1,29.95,NNW,340,1.0,10.0,55,0.00,,---,0.23,VWS V14.01,2013-02-19 20:27:00,
2013-02-19 15:32:00,42.7,29.0,29.95,North,355,5.0,11.0,58,0.00,,---,0.23,VWS V14.01,2013-02-19 20:32:00,
2013-02-19 15:37:00,42.5,27.5,29.95,NNW,345,2.0,7.0,55,0.00,,---,0.23,VWS V14.01,2013-02-19 20:37:00,
2013-02-19 15:42:00,42.1,26.7,29.95,WNW,285,2.0,8.0,54,0.00,,---,0.23,VWS V14.01,2013-02-19 20:42:00,
2013-02-19 15:47:00,41.9,26.9,29.95,NW,305,3.0,3.0,55,0.00,,---,0.23,VWS V14.01,2013-02-19 20:47:00,
2013-02-19 15:52:00,41.8,28.1,29.96,NNW,336,1.0,5.0,58,0.00,,---,0.23,VWS V14.01,2013-02-19 20:52:00,
2013-02-19 15:57:00,41.3,27.6,29.96,SW,235,3.0,4.0,58,0.00,,---,0.23,VWS V14.01,2013-02-19 20:57:00,
2013-02-19 16:02:00,41.3,28.1,29.96,WNW,303,4.0,4.0,59,0.00,,---,0.23,VWS V14.01,2013-02-19 21:02:00,
2013-02-19 16:07:00,41.3,27.6,29.97,SSW,211,4.0,5.0,58,0.00,,---,0.23,VWS V14.01,2013-02-19 21:07:00,
2013-02-19 16:12:00,41.6,28.8,29.97,West,270,3.0,3.0,60,0.00,,---,0.23,VWS V14.01,2013-02-19 21:12:00,
2013-02-19 16:17:00,41.5,28.3,29.97,West,262,2.0,4.0,59,0.00,,---,0.23,VWS V14.01,2013-02-19 21:17:00,
2013-02-19 16:22:00,41.5,29.9,29.97,NNW,334,8.0,8.0,63,0.00,,---,0.23,VWS V14.01,2013-02-19 21:22:00,
2013-02-19 16:27:00,40.9,29.7,29.97,West,259,3.0,6.0,64,0.00,,---,0.23,VWS V14.01,2013-02-19 21:27:00,
2013-02-19 16:32:00,40.1,30.0,29.97,WSW,254,4.0,8.0,67,0.00,,---,0.23,VWS V14.01,2013-02-19 21:32:00,
2013-02-19 16:37:00,39.3,29.6,29.97,WNW,288,2.0,9.0,68,0.00,,---,0.23,VWS V14.01,2013-02-19 21:37:00,
2013-02-19 16:42:00,38.9,30.0,29.97,WSW,245,6.0,7.0,70,0.00,,---,0.23,VWS V14.01,2013-02-19 21:42:00,
2013-02-19 16:47:00,38.4,29.1,29.97,North,359,6.0,6.0,69,0.00,,---,0.23,VWS V14.01,2013-02-19 21:47:00,
2013-02-19 16:52:00,38.3,28.0,29.97,WSW,251,4.0,7.0,66,0.00,,---,0.23,VWS V14.01,2013-02-19 21:52:00,
2013-02-19 16:57:00,37.8,26.4,29.97,East,95,1.0,11.0,63,0.00,,---,0.23,VWS V14.01,2013-02-19 21:57:00,
2013-02-19 17:02:00,37.4,26.0,29.97,NW,309,5.0,8.0,63,0.00,,---,0.23,VWS V14.01,2013-02-19 22:02:00,
2013-02-19 17:07:00,37.1,25.7,29.98,NW,305,5.0,7.0,63,0.00,,---,0.23,VWS V14.01,2013-02-19 22:07:00,
2013-02-19 17:12:00,36.9,25.1,29.97,WNW,294,4.0,9.0,62,0.00,,---,0.23,VWS V14.01,2013-02-19 22:12:00,
2013-02-19 17:17:00,36.5,24.7,29.98,NNE,16,14.0,14.0,62,0.00,,---,0.23,VWS V14.01,2013-02-19 22:17:00,
2013-02-19 17:22:00,36.3,23.8,29.99,WSW,258,4.0,5.0,60,0.00,,---,0.23,VWS V14.01,2013-02-19 22:22:00,
2013-02-19 17:27:00,36.1,23.2,29.98,WSW,237,5.0,5.0,59,0.00,,---,0.23,VWS V14.01,2013-02-19 22:27:00,
2013-02-19 17:32:00,35.7,23.6,29.99,NNE,25,1.0,6.0,61,0.00,,---,0.23,VWS V14.01,2013-02-19 22:32:00,
2013-02-19 17:37:00,35.5,22.6,29.99,West,270,6.0,7.0,59,0.00,,---,0.23,VWS V14.01,2013-02-19 22:37:00,
2013-02-19 17:42:00,35.2,22.7,29.99,WNW,297,4.0,4.0,60,0.00,,---,0.23,VWS V14.01,2013-02-19 22:42:00,
2013-02-19 17:47:00,35.1,22.2,29.99,North,357,5.0,10.0,59,0.00,,---,0.23,VWS V14.01,2013-02-19 22:47:00,
2013-02-19 17:52:00,34.9,22.0,29.99,WNW,295,4.0,4.0,59,0.00,,---,0.23,VWS V14.01,2013-02-19 22:52:00,
2013-02-19 17:57:00,34.8,21.5,29.99,WSW,243,2.0,3.0,58,0.00,,---,0.23,VWS V14.01,2013-02-19 22:57:00,
2013-02-19 18:02:00,34.4,22.0,29.99,WNW,286,5.0,6.0,60,0.00,,---,0.23,VWS V14.01,2013-02-19 23:02:00,
2013-02-19 18:07:00,34.1,20.9,29.99,NW,326,2.0,8.0,58,0.00,,---,0.23,VWS V14.01,2013-02-19 23:07:00,
2013-02-19 18:12:00,34.0,20.0,29.99,SW,223,4.0,7.0,56,0.00,,---,0.23,VWS V14.01,2013-02-19 23:12:00,
2013-02-19 18:17:00,33.8,19.8,30.00,WNW,302,8.0,11.0,56,0.00,,---,0.23,VWS V14.01,2013-02-19 23:17:00,
2013-02-19 18:22:00,33.5,19.9,30.00,NW,320,5.0,8.0,57,0.00,,---,0.23,VWS V14.01,2013-02-19 23:22:00,
2013-02-19 18:27:00,33.2,18.8,30.00,WNW,302,6.0,6.0,55,0.00,,---,0.23,VWS V14.01,2013-02-19 23:27:00,
2013-02-19 18:32:00,33.1,17.8,30.01,North,350,5.0,5.0,53,0.00,,---,0.23,VWS V14.01,2013-02-19 23:32:00,
2013-02-19 18:37:00,32.8,18.4,30.01,NNW,347,9.0,9.0,55,0.00,,---,0.23,VWS V14.01,2013-02-19 23:37:00,
2013-02-19 18:42:00,32.5,18.6,30.01,NNW,327,1.0,2.0,56,0.00,,---,0.23,VWS V14.01,2013-02-19 23:42:00,
2013-02-19 18:47:00,32.5,17.7,30.02,West,272,7.0,7.0,54,0.00,,---,0.23,VWS V14.01,2013-02-19 23:47:00,
2013-02-19 18:52:00,32.5,16.4,30.02,West,270,2.0,6.0,51,0.00,,---,0.23,VWS V14.01,2013-02-19 23:52:00,
2013-02-19 18:57:00,32.4,16.8,30.02,NNW,338,7.0,14.0,52,0.00,,---,0.23,VWS V14.01,2013-02-19 23:57:00,
2013-02-19 19:02:00,32.0,16.4,30.03,NNW,328,3.0,5.0,52,0.00,,---,0.23,VWS V14.01,2013-02-20 00:02:00,
2013-02-19 19:07:00,31.5,15.9,30.03,WNW,282,9.0,9.0,52,0.00,,---,0.23,VWS V14.01,2013-02-20 00:07:00,
2013-02-19 19:12:00,31.4,15.8,30.04,WNW,297,2.0,2.0,52,0.00,,---,0.23,VWS V14.01,2013-02-20 00:12:00,
2013-02-19 19:17:00,31.4,15.4,30.03,SW,235,3.0,7.0,51,0.00,,---,0.23,VWS V14.01,2013-02-20 00:17:00,
2013-02-19 19:22:00,31.1,16.0,30.04,NW,321,2.0,5.0,53,0.00,,---,0.23,VWS V14.01,2013-02-20 00:22:00,
2013-02-19 19:27:00,31.0,15.9,30.04,West,277,4.0,6.0,53,0.00,,---,0.23,VWS V14.01,2013-02-20 00:27:00,
2013-02-19 19:32:00,30.8,15.7,30.05,NNW,336,6.0,6.0,53,0.00,,---,0.23,VWS V14.01,2013-02-20 00:32:00,
2013-02-19 19:37:00,30.5,16.3,30.05,West,262,3.0,4.0,55,0.00,,---,0.23,VWS V14.01,2013-02-20 00:37:00,
2013-02-19 19:42:00,30.6,15.9,30.05,NW,323,2.0,3.0,54,0.00,,---,0.23,VWS V14.01,2013-02-20 00:42:00,
2013-02-19 19:47:00,30.4,16.2,30.05,WNW,291,4.0,4.0,55,0.00,,---,0.23,VWS V14.01,2013-02-20 00:47:00,
2013-02-19 19:52:00,30.3,16.1,30.05,NNW,330,3.0,7.0,55,0.00,,---,0.23,VWS V14.01,2013-02-20 00:52:00,
2013-02-19 19:57:00,30.3,16.1,30.05,West,280,4.0,8.0,55,0.00,,---,0.23,VWS V14.01,2013-02-20 00:57:00,
2013-02-19 20:02:00,30.1,15.9,30.06,WNW,286,1.0,3.0,55,0.00,,---,0.23,VWS V14.01,2013-02-20 01:02:00,
2013-02-19 20:07:00,29.9,16.1,30.05,WSW,240,7.0,7.0,56,0.00,,---,0.23,VWS V14.01,2013-02-20 01:07:00,
2013-02-19 20:12:00,29.7,15.9,30.05,West,265,4.0,6.0,56,0.00,,---,0.23,VWS V14.01,2013-02-20 01:12:00,
2013-02-19 20:17:00,29.7,15.5,30.05,NW,324,4.0,5.0,55,0.00,,---,0.23,VWS V14.01,2013-02-20 01:17:00,
2013-02-19 20:22:00,29.4,15.2,30.05,WNW,287,7.0,7.0,55,0.00,,---,0.23,VWS V14.01,2013-02-20 01:22:00,
2013-02-19 20:27:00,29.2,15.1,30.05,SW,229,3.0,5.0,55,0.00,,---,0.23,VWS V14.01,2013-02-20 01:27:00,
2013-02-19 20:32:00,29.0,14.9,30.05,NW,308,5.0,11.0,55,0.00,,---,0.23,VWS V14.01,2013-02-20 01:32:00,
2013-02-19 20:37:00,29.0,14.9,30.04,West,280,5.0,5.0,55,0.00,,---,0.23,VWS V14.01,2013-02-20 01:37:00,
2013-02-19 20:42:00,28.8,15.1,30.04,West,277,5.0,13.0,56,0.00,,---,0.23,VWS V14.01,2013-02-20 01:42:00,
2013-02-19 20:47:00,29.0,15.7,30.05,North,6,5.0,12.0,57,0.00,,---,0.23,VWS V14.01,2013-02-20 01:47:00,
2013-02-19 20:52:00,28.9,16.4,30.04,SW,226,8.0,8.0,59,0.00,,---,0.23,VWS V14.01,2013-02-20 01:52:00,
2013-02-19 20:57:00,28.5,16.0,30.05,West,262,11.0,11.0,59,0.00,,---,0.23,VWS V14.01,2013-02-20 01:57:00,
2013-02-19 21:02:00,28.5,15.2,30.04,SW,214,7.0,7.0,57,0.00,,---,0.23,VWS V14.01,2013-02-20 02:02:00,
2013-02-19 21:07:00,28.3,15.8,30.03,WNW,283,4.0,7.0,59,0.00,,---,0.23,VWS V14.01,2013-02-20 02:07:00,
2013-02-19 21:12:00,28.1,15.6,30.04,SSW,195,7.0,7.0,59,0.00,,---,0.23,VWS V14.01,2013-02-20 02:12:00,
2013-02-19 21:17:00,28.0,15.1,30.04,NNE,14,3.0,5.0,58,0.00,,---,0.23,VWS V14.01,2013-02-20 02:17:00,
2013-02-19 21:22:00,27.9,15.8,30.04,South,191,10.0,10.0,60,0.00,,---,0.23,VWS V14.01,2013-02-20 02:22:00,
2013-02-19 21:27:00,28.0,15.5,30.04,North,3,3.0,7.0,59,0.00,,---,0.23,VWS V14.01,2013-02-20 02:27:00,
2013-02-19 21:32:00,27.8,16.1,30.05,WNW,289,4.0,5.0,61,0.00,,---,0.23,VWS V14.01,2013-02-20 02:32:00,
2013-02-19 21:37:00,27.4,15.7,30.04,NW,322,4.0,6.0,61,0.00,,---,0.23,VWS V14.01,2013-02-20 02:37:00,
2013-02-19 21:42:00,27.3,15.6,30.04,NNE,25,3.0,4.0,61,0.00,,---,0.23,VWS V14.01,2013-02-20 02:42:00,
2013-02-19 21:47:00,27.2,15.9,30.05,West,274,4.0,6.0,62,0.00,,---,0.23,VWS V14.01,2013-02-20 02:47:00,
2013-02-19 21:52:00,27.2,15.9,30.05,SW,225,3.0,4.0,62,0.00,,---,0.23,VWS V14.01,2013-02-20 02:52:00,
2013-02-19 21:57:00,27.1,15.8,30.05,SW,226,7.0,8.0,62,0.00,,---,0.23,VWS V14.01,2013-02-20 02:57:00,
2013-02-19 22:02:00,26.9,15.6,30.05,NW,323,4.0,6.0,62,0.00,,---,0.23,VWS V14.01,2013-02-20 03:02:00,
2013-02-19 22:07:00,27.1,15.4,30.05,NW,320,6.0,6.0,61,0.00,,---,0.23,VWS V14.01,2013-02-20 03:07:00,
2013-02-19 22:12:00,26.9,15.6,30.05,SW,227,4.0,4.0,62,0.00,,---,0.23,VWS V14.01,2013-02-20 03:12:00,
2013-02-19 22:17:00,26.6,15.4,30.05,West,276,2.0,5.0,62,0.00,,---,0.23,VWS V14.01,2013-02-20 03:17:00,
2013-02-19 22:22:00,26.5,15.6,30.05,WNW,295,5.0,5.0,63,0.00,,---,0.23,VWS V14.01,2013-02-20 03:22:00,
2013-02-19 22:27:00,26.7,15.4,30.06,SW,234,5.0,8.0,62,0.00,,---,0.23,VWS V14.01,2013-02-20 03:27:00,
2013-02-19 22:32:00,26.5,15.6,30.06,South,182,6.0,10.0,63,0.00,,---,0.23,VWS V14.01,2013-02-20 03:32:00,
2013-02-19 22:37:00,26.5,14.9,30.06,NNW,343,5.0,5.0,61,0.00,,---,0.23,VWS V14.01,2013-02-20 03:37:00,
2013-02-19 22:42:00,26.2,15.0,30.05,West,274,4.0,4.0,62,0.00,,---,0.23,VWS V14.01,2013-02-20 03:42:00,
2013-02-19 22:47:00,26.4,14.4,30.05,WNW,290,5.0,12.0,60,0.00,,---,0.23,VWS V14.01,2013-02-20 03:47:00,
2013-02-19 22:52:00,26.3,14.7,30.06,West,259,4.0,5.0,61,0.00,,---,0.23,VWS V14.01,2013-02-20 03:52:00,
2013-02-19 22:57:00,26.1,14.5,30.06,NE,35,10.0,10.0,61,0.00,,---,0.23,VWS V14.01,2013-02-20 03:57:00,
2013-02-19 23:02:00,26.2,14.2,30.06,NNW,336,6.0,6.0,60,0.00,,---,0.23,VWS V14.01,2013-02-20 04:02:00,
2013-02-19 23:07:00,26.2,14.2,30.06,NE,41,5.0,8.0,60,0.00,,---,0.23,VWS V14.01,2013-02-20 04:07:00,
2013-02-19 23:12:00,26.0,14.8,30.06,West,279,3.0,8.0,62,0.00,,---,0.23,VWS V14.01,2013-02-20 04:12:00,
2013-02-19 23:17:00,25.8,14.2,30.07,NNW,332,3.0,3.0,61,0.00,,---,0.23,VWS V14.01,2013-02-20 04:17:00,
2013-02-19 23:22:00,25.8,14.2,30.07,SW,216,4.0,4.0,61,0.00,,---,0.23,VWS V14.01,2013-02-20 04:22:00,
2013-02-19 23:27:00,25.7,14.5,30.07,WSW,257,7.0,8.0,62,0.00,,---,0.23,VWS V14.01,2013-02-20 04:27:00,
2013-02-19 23:32:00,25.5,14.3,30.07,NW,311,5.0,9.0,62,0.00,,---,0.23,VWS V14.01,2013-02-20 04:32:00,
2013-02-19 23:37:00,25.5,13.9,30.07,WNW,287,6.0,6.0,61,0.00,,---,0.23,VWS V14.01,2013-02-20 04:37:00,
2013-02-19 23:42:00,25.3,14.1,30.08,NNE,30,2.0,2.0,62,0.00,,---,0.23,VWS V14.01,2013-02-20 04:42:00,
2013-02-19 23:47:00,25.3,14.1,30.08,SSW,201,11.0,12.0,62,0.00,,---,0.23,VWS V14.01,2013-02-20 04:47:00,
2013-02-19 23:52:00,25.2,14.4,30.08,NNW,339,4.0,7.0,63,0.00,,---,0.23,VWS V14.01,2013-02-20 04:52:00,
2013-02-19 23:57:00,24.9,14.8,30.07,SE,125,8.0,9.0,65,0.00,,---,0.23,VWS V14.01,2013-02-20 04:57:00,